This is the latest recevied weather packets stored in our database for station/object DG6YGE-6. If no packets are shown the sender has not sent any weather packets the latest 10 day(s).
| Time | Temp. | Humidity | Pressure | Rain* | Wind** | Luminosity | Snow |
|---|---|---|---|---|---|---|---|
| 1777757952 | 17.22° C | 80% | 1014.6 hPa | 0 mm | - | 0 W/m² | - |
| 1777757351 | 17.78° C | 77% | 1014.6 hPa | 0 mm | - | 0 W/m² | - |
| 1777756752 | 18.33° C | 73% | 1013.8 hPa | 0 mm | - | 0 W/m² | - |
| 1777756152 | 18.33° C | 72% | 1013.3 hPa | 0 mm | - | 0 W/m² | - |
| 1777755552 | 18.89° C | 70% | 1013.6 hPa | 0 mm | - | 0 W/m² | - |
| 1777754952 | 18.89° C | 69% | 1013.5 hPa | 0 mm | - | 0 W/m² | - |
| 1777754351 | 19.44° C | 68% | 1014.1 hPa | 0 mm | - | 0 W/m² | - |
| 1777753752 | 18.33° C | 69% | 1014.3 hPa | 0 mm | - | 0 W/m² | - |
| 1777753152 | 18.33° C | 73% | 1013.5 hPa | 0 mm | - | 0 W/m² | - |
| 1777752552 | 18.33° C | 72% | 1013.4 hPa | 0 mm | - | 0 W/m² | - |
| 1777751952 | 18.33° C | 71% | 1013.4 hPa | 0 mm | - | 0 W/m² | - |
| 1777751351 | 18.89° C | 70% | 1013.5 hPa | 0 mm | - | 0 W/m² | - |
| 1777750752 | 19.44° C | 68% | 1013.5 hPa | 0 mm | - | 0 W/m² | - |
| 1777750152 | 20° C | 66% | 1013.4 hPa | 0 mm | - | 0 W/m² | - |
| 1777749551 | 20.56° C | 65% | 1013.3 hPa | 0 mm | - | 0 W/m² | - |
| 1777748952 | 21.11° C | 63% | 1013.2 hPa | 0 mm | - | 0 W/m² | - |
| 1777748352 | 21.11° C | 60% | 1013.2 hPa | 0 mm | - | 2 W/m² | - |
| 1777747752 | 21.67° C | 59% | 1013.1 hPa | 0 mm | - | 11 W/m² | - |
| 1777747152 | 21.67° C | 58% | 1013.1 hPa | 0 mm | - | 19 W/m² | - |
| 1777746552 | 22.22° C | 58% | 1013.1 hPa | 0 mm | - | 19 W/m² | - |
| 1777745951 | 22.22° C | 57% | 1013.1 hPa | 0 mm | - | 30 W/m² | - |
| 1777745351 | 22.78° C | 55% | 1013.1 hPa | 0 mm | - | 32 W/m² | - |
| 1777744752 | 22.78° C | 54% | 1013.2 hPa | 0 mm | - | 33 W/m² | - |
| 1777744152 | 23.33° C | 54% | 1013.3 hPa | 0 mm | - | 41 W/m² | - |
| 1777743551 | 23.33° C | 53% | 1013.4 hPa | 0 mm | - | 53 W/m² | - |
* Rain latest hour (hover to see other rain measurements)
** Current wind speed in m/s (hover to see current wind gust speed)